Home > Weather > Limerick > Past weeks

Flag for Ireland Past Weather in Limerick, Ireland — Yesterday and Last 2 Weeks

Now
57 °F

Partly sunny.


Feels Like: 53 °F
Forecast: 48 / 58 °F
Wind: 17 mph from West

Location: Shannon Airport

Current Time: Jun 30, 2016 at 6:44:04 PM

Latest Report: Jun 30, 2016 at 6:00 PM


Visibility: N/A

Pressure: 29.65 "Hg

Humidity: 82%

Dew Point: 52 °F

Location of LimerickLocation

Past Weather in Limerick — Graph

°F

Limerick Temperature Yesterday

Maximum temperature yesterday: 63 °F (at 1:00 PM)
Minimum temperature yesterday: 54 °F (at 3:00 AM)
Average temperature yesterday: 58 °F

High & Low Weather Summary for the Past Weeks

 TemperatureHumidityPressure
High64 °F (Jun 21, 11:30 AM)100% (Jun 30, 2:30 PM)30.21 "Hg (Jun 30, 2:30 PM)
Low50 °F (Jun 17, 2:30 AM)45% (Jun 16, 4:00 PM)29.50 "Hg (Jun 15, 5:00 PM)
Average58 °F77%29.94 "Hg
* Reported Jun 15 5:00 PM — Jun 30 5:30 PM, Limerick, Weather by CustomWeather, © 2016

Note: Actual official high and low records may vary slightly from our data, if they occured in-between our weather recording intervals... More about our weather records

Advertising

Limerick Weather History for the Previous 24 Hours

Scroll right to see more
 ConditionsComfort  
Time TempWeatherWind HumidityBarometerVisibility
5:30 PM
Thu, Jun 30
57 °FBroken clouds.16 mph88%29.65 "Hg6 mi
5:00 PM55 °FDrizzle. Partly sunny.16 mph94%29.65 "Hg4 mi
4:30 PM57 °FPartly sunny.18 mph88%29.65 "Hg4 mi
4:00 PM57 °FPartly sunny.18 mph88%29.65 "HgN/A
3:30 PM57 °FDrizzle. Partly sunny.20 mph88%29.65 "HgN/A
3:00 PM57 °FDrizzle. Partly sunny.16 mph88%29.65 "Hg6 mi
2:30 PM57 °FDrizzle. Broken clouds.16 mph100%29.65 "Hg4 mi
2:00 PM55 °FDrizzle. Broken clouds.17 mph94%29.65 "Hg4 mi
1:30 PM57 °FDrizzle. Partly sunny.13 mph88%29.65 "HgN/A
1:00 PM55 °FDrizzle. Partly sunny.14 mph94%29.65 "Hg1 mi
12:30 PM55 °FDrizzle. Broken clouds.16 mph94%29.65 "Hg2 mi
12:00 PM55 °FLight rain. Broken clouds.16 mph88%29.68 "Hg5 mi
11:30 AM55 °FLight rain. Partly sunny.13 mph88%29.68 "Hg5 mi
11:00 AM55 °FLight rain. Partly sunny.12 mph88%29.68 "Hg5 mi
10:30 AM55 °FPartly sunny.12 mph88%29.71 "HgN/A
10:00 AM54 °FLight rain. Overcast.10 mph88%29.71 "HgN/A
9:30 AM54 °FOvercast.12 mph88%29.71 "HgN/A
9:00 AM54 °FLight rain. More clouds than sun.10 mph88%29.71 "Hg6 mi
8:30 AM54 °FLight rain. More clouds than sun.9 mph82%29.71 "Hg4 mi
8:00 AM54 °FLight rain. Broken clouds.9 mph82%29.74 "HgN/A
7:30 AM54 °FLight rain. Broken clouds.8 mph82%29.71 "HgN/A
7:00 AM54 °FBroken clouds.8 mph77%29.71 "HgN/A
6:30 AM54 °FBroken clouds.10 mph77%29.71 "HgN/A
6:00 AM54 °FPartly cloudy.9 mph77%29.71 "HgN/A
5:30 AM54 °FPassing clouds.8 mph82%29.71 "HgN/A
5:00 AM54 °FPassing clouds.7 mph82%29.71 "HgN/A
4:30 AM54 °FPartly cloudy.7 mph82%29.74 "HgN/A
4:00 AM54 °FPartly cloudy.7 mph82%29.74 "HgN/A
3:30 AM54 °FPartly cloudy.9 mph82%29.74 "HgN/A
3:00 AM54 °FPartly cloudy.7 mph82%29.74 "HgN/A
2:30 AM54 °FPassing clouds.6 mph82%29.74 "HgN/A
2:00 AM55 °FPassing clouds.7 mph77%29.74 "HgN/A
1:30 AM54 °FPassing clouds.8 mph82%29.74 "HgN/A
1:00 AM54 °FPassing clouds.2 mph82%29.74 "HgN/A
12:30 AM54 °FPassing clouds.7 mph82%29.74 "HgN/A
12:00 AM54 °FPassing clouds.8 mph82%29.74 "HgN/A
11:30 PM
Wed, Jun 29
54 °FPassing clouds.8 mph82%29.74 "HgN/A
11:00 PM54 °FPartly sunny.8 mph82%29.74 "HgN/A
10:30 PM54 °FBroken clouds.6 mph77%29.74 "HgN/A
10:00 PM55 °FPartly sunny.7 mph72%29.74 "HgN/A
9:30 PM55 °FScattered clouds.7 mph72%29.71 "HgN/A
9:00 PM57 °FScattered clouds.9 mph67%29.71 "HgN/A
8:30 PM57 °FPassing clouds.9 mph67%29.71 "HgN/A
8:00 PM59 °FPassing clouds.13 mph63%29.71 "HgN/A
7:30 PM59 °FPassing clouds.13 mph63%29.68 "HgN/A
7:00 PM61 °FPassing clouds.16 mph55%29.68 "HgN/A
6:30 PM61 °FScattered clouds.14 mph55%29.68 "HgN/A
6:00 PM61 °FPassing clouds.15 mph55%29.68 "HgN/A
Weather by CustomWeather, © 2016

See weather overviewHow to use our weather pages